Lexington Weather

Lexington, Massachusetts, USA

24°F
3/3/2021 3:44am 
  • Lexington Conditions: Overcast
  • Temperature: 24.1°F / -4.4°CWarmer 1.5°F than last hour.
  • Dew Point: 10.6°FIncreased 0.6°Fsince last hour.
  • Relative Humidity: 56%Decreased 2.0% since last hour.
  • Wind: Wind from SSW SSW 6 mph, 10-min avg: 2 mph, gust: 8 mph
  • Barometer: 29.85 inFalling 0.03  inHg/hr Falling Slowly
  • Visibility: 10 miles
  • Snow Today: 0.0 in
  •   

Regional Weather Roundup
for Boston / Norton, MA

        
000
ASUS41 KBOX 261004
RWRBOX

REGIONAL WEATHER ROUNDUP
NATIONAL WEATHER SERVICE BOSTON/NORTON MA
500 AM EST FRI FEB 26 2021

NOTE:  "FAIR" INDICATES FEW OR NO CLOUDS BELOW 12,000 FEET WITH NO 
SIGNIFICANT WEATHER AND/OR OBSTRUCTIONS TO VISIBILITY.

MAZALL-261100-
EASTERN MASSACHUSETTS
  
CITY           SKY/WX    TMP DP  RH WIND       PRES   REMARKS
BOSTON         CLEAR     29  11  47 W8        30.31R WCI  21          
BEVERLY        CLEAR     27  13  55 N3        30.29R                  
LAWRENCE       CLEAR     23  12  62 N6        30.31R WCI  16          
BEDFORD        CLEAR     23  13  65 CALM      30.29R                  
BLUE HILL        N/A     24  13  62 NW9       30.25R WCI  14          
NORWOOD        CLEAR     21  16  81 CALM      30.31R                  
MARSHFIELD     CLEAR     30  12  47 VRB6G12   30.29R WCI  24          
PLYMOUTH       CLEAR     29  10  45 NW9       30.28R WCI  20          
TAUNTON        CLEAR     25  10  53 CALM      30.30R                  
NEW BEDFORD    CLEAR     28  10  46 CALM      30.30R                  
$$

MAZALL-261100-
CAPE COD AND THE ISLANDS
  
CITY           SKY/WX    TMP DP  RH WIND       PRES   REMARKS
FALMOUTH       CLEAR     27   9  46 NW9       30.29R WCI  17          
HYANNIS        CLEAR     32  12  43 NW7       30.28R WCI  26          
CHATHAM        CLEAR     31  15  52 NW5       30.29R WCI  26          
PROVINCETOWN   CLEAR     33  18  53 NW16      30.30R WCI  23          
NANTUCKET      CLEAR     31  12  45 NW10      30.29R WCI  22          
MARTHAS VNYRD  CLEAR     23  11  60 CALM      30.30R                  
$$
 
MAZALL-261100-
CENTRAL AND WESTERN MASSACHUSETTS
  
CITY           SKY/WX    TMP DP  RH WIND       PRES   REMARKS
WORCESTER      CLEAR     25  10  53 W7        30.25R WCI  17          
FITCHBURG      CLEAR     20  13  74 CALM      30.29R                  
ORANGE         CLEAR     18  13  80 SW5       30.29R WCI  11          
SPRINGFIELD    CLEAR     26  15  62 W7        30.30R WCI  18          
WESTFIELD      CLEAR     23  15  71 SW3       30.31R                  
NORTH ADAMS    CLOUDY    26  15  63 NW6       30.29R WCI  19          
PITTSFIELD     CLEAR     21  14  74 W6        30.25R WCI  13          
$$
 
RIZALL-261100-
RHODE ISLAND
  
CITY           SKY/WX    TMP DP  RH WIND       PRES   REMARKS
PROVIDENCE     CLEAR     31  11  43 NW7       30.31R WCI  24          
NEWPORT        CLEAR     30  14  51 NW8       30.30R WCI  22          
BLOCK ISLAND   CLEAR     31  17  56 NW8       30.33R WCI  23          
SMITHFIELD     CLEAR     28  13  53 NW6       30.29R WCI  22          
WESTERLY       PTCLDY    28  13  53 CALM      30.32R                  
$$
 
CTZALL-261100-
CONNECTICUT
  
CITY           SKY/WX    TMP DP  RH WIND       PRES   REMARKS
BRADLEY INTL   PTCLDY    26  15  63 W5        30.32R WCI  20          
HARTFORD       CLEAR     31  15  52 CALM      30.35R                  
BRIDGEPORT     PTCLDY    29  17  61 CALM      30.35                   
DANBURY        PTCLDY    23  15  71 CALM      30.34R                  
GROTON         PTCLDY    29  15  56 NW9       30.33R WCI  20          
NEW HAVEN      PTCLDY    31  19  61 NW5       30.34R WCI  26          
CHESTER        FAIR      28  14  54 NW13      30.31R WCI  18          
MERIDEN        PTCLDY    21  16  81 CALM      30.34R                  
WILLIMANTIC    CLEAR     30  15  53 NW8       30.34R WCI  22          
OXFORD         PTCLDY    23  17  78 N6        30.32R WCI  16          
$$

MEZ002-015-021-024-NHZ003-005-008-011-012-014-VTZ005-008-261100-
NORTHERN NEW ENGLAND
  
CITY           SKY/WX    TMP DP  RH WIND       PRES   REMARKS
PORTLAND ME    PTCLDY    19   9  65 N3        30.27R                  
BANGOR ME      CLEAR     16   2  54 NW12      30.24R WCI   3          
CONCORD NH     CLEAR     20   8  60 NW7       30.28R WCI  11          
MANCHESTER NH  CLEAR     24  12  60 N6        30.28R WCI  17          
NASHUA NH      CLEAR     25  13  60 W6        30.29R WCI  18          
PORTSMOUTH NH  CLEAR     24   7  48 CALM      30.27R                  
JAFFREY NH     CLEAR     15  10  80 CALM      30.24R                  
KEENE NH       PTCLDY    21  14  74 S5        30.29R WCI  15          
BURLINGTON VT  CLOUDY    20   9  62 N8        30.35R WCI  10          
MT. WASHINGTON NOT AVBL                                               
$$

NYZ052-076-261100-
EASTERN NEW YORK
  
CITY           SKY/WX    TMP DP  RH WIND       PRES   REMARKS
ALBANY         CLOUDY    24  18  77 CALM      30.34R                  
NEW YORK CITY  MOCLDY    37  12  35 N14       30.34R WCI  28          
$$
 
ANZALL-261100-
MARINE OBSERVATIONS
  
STATION/POSITION TIME  TEMP    WIND        PRES    VSBY  WAVE
                       AIR SEA DIR/SP/G                  HT/PER
                 (UTC) (F)     (DEG/KT/KT) (MB)    (MI)  (FT/S)
BOSTON BUOY      0950   33 39  300/ 16/ 19 1026.2R         2/ 3
BUZZARDS BAY     0900          280/ 13/ 15 1026.2R
NANTUCKET SOUND  0940      37  300/ 10/ 14   N/A
MASS BAY-STELLWA 0904   32     310/ 10/ 12 1024.0R  1 7/8  2/ 3
ISLE OF SHOALS   0900   28     310/ 13/ 15 1024.3R
S OF BLOCK IS    0926      40                N/A           3/ 8
$$

......................KEY.........................
  SKY/WX - SKY CONDITION/PRESENT WEATHER
  TMP    - TEMPERATURE IN FAHRENHEIT
  DWPT   - DEWPOINT IN FAHRENHEIT
  RH     - RELATIVE HUMIDITY IN PERCENT
  WIND   - DIRECTION AND SPEED IN MPH
  PRES   - MEAN SEA LEVEL PRESSURE IN INCHES OF HG
  WCI    - WIND CHILL INDEX
  VSB    - VISIBILITY IN MILES
  HX     - HEAT INDEX
  TC     - TEMPERATURE IN CELSIUS
  VRB    - VARIABLE WIND DIRECTION
  N/A    - NOT AVAILABLE
  
      

Other recent Regional Weather Roundups

Wed Mar 3, 3:04am

Wed Mar 3, 2:04am

Wed Mar 3, 1:04am

Wed Mar 3, 12:04am

Tue Mar 2, 11:04pm

Tue Mar 2, 10:05pm

Tue Mar 2, 9:04pm

Tue Mar 2, 8:04pm

Tue Mar 2, 7:04pm

Tue Mar 2, 6:04pm

Tue Mar 2, 5:04pm

Tue Mar 2, 4:05pm

Tue Mar 2, 3:04pm

Tue Mar 2, 2:04pm

Tue Mar 2, 1:04pm

Tue Mar 2, 12:04pm

Tue Mar 2, 11:04am

Tue Mar 2, 10:05am

Tue Mar 2, 9:04am

Tue Mar 2, 8:04am

Tue Mar 2, 7:04am

Tue Mar 2, 6:05am

Tue Mar 2, 5:04am

Tue Mar 2, 4:04am

Tue Mar 2, 3:04am

Tue Mar 2, 2:04am

Tue Mar 2, 1:04am

Tue Mar 2, 12:04am

Mon Mar 1, 11:04pm

Mon Mar 1, 10:04pm

Mon Mar 1, 9:04pm

Mon Mar 1, 8:04pm

Mon Mar 1, 7:04pm

Mon Mar 1, 6:04pm

Mon Mar 1, 5:04pm

Mon Mar 1, 4:05pm

Mon Mar 1, 3:05pm

Mon Mar 1, 2:04pm

Mon Mar 1, 1:04pm

Mon Mar 1, 12:04pm

Mon Mar 1, 11:04am

Mon Mar 1, 10:04am

Mon Mar 1, 9:04am

Mon Mar 1, 8:05am

Mon Mar 1, 7:04am

Mon Mar 1, 6:04am

Mon Mar 1, 5:04am

Mon Mar 1, 4:05am

Mon Mar 1, 3:04am

Mon Mar 1, 2:04am

Mon Mar 1, 1:04am

Mon Mar 1, 12:05am

Sun Feb 28, 11:04pm

Sun Feb 28, 10:04pm

Sun Feb 28, 9:04pm

Sun Feb 28, 8:04pm

Sun Feb 28, 7:04pm

Sun Feb 28, 6:05pm

Sun Feb 28, 5:04pm

Sun Feb 28, 4:05pm

Sun Feb 28, 3:04pm

Sun Feb 28, 2:04pm

Sun Feb 28, 1:04pm

Sun Feb 28, 12:04pm

Sun Feb 28, 11:04am

Sun Feb 28, 10:04am

Sun Feb 28, 9:04am

Sun Feb 28, 8:04am

Sun Feb 28, 7:04am

Sun Feb 28, 6:04am

Sun Feb 28, 5:04am

Sun Feb 28, 4:04am

Sun Feb 28, 3:04am

Sun Feb 28, 2:04am

Sun Feb 28, 1:04am

Sun Feb 28, 12:04am

Sat Feb 27, 11:04pm

Sat Feb 27, 10:04pm

Sat Feb 27, 9:04pm

Sat Feb 27, 8:04pm

Sat Feb 27, 7:04pm

Sat Feb 27, 6:04pm

Sat Feb 27, 5:04pm

Sat Feb 27, 4:04pm

Sat Feb 27, 3:05pm

Sat Feb 27, 2:05pm

Sat Feb 27, 1:04pm

Sat Feb 27, 12:04pm

Sat Feb 27, 11:04am

Sat Feb 27, 10:04am

Sat Feb 27, 9:05am

Sat Feb 27, 8:04am

Sat Feb 27, 7:04am

Sat Feb 27, 6:04am

Sat Feb 27, 5:04am

Sat Feb 27, 4:04am

Sat Feb 27, 3:04am

Sat Feb 27, 2:04am

Sat Feb 27, 1:04am

Sat Feb 27, 12:04am

Fri Feb 26, 11:04pm

Fri Feb 26, 10:04pm

Fri Feb 26, 9:04pm

Fri Feb 26, 8:04pm

Fri Feb 26, 7:04pm

Fri Feb 26, 6:04pm

Fri Feb 26, 5:04pm

Fri Feb 26, 4:04pm

Fri Feb 26, 3:04pm

Fri Feb 26, 2:04pm

Fri Feb 26, 1:04pm

Fri Feb 26, 12:04pm

Fri Feb 26, 11:04am

Fri Feb 26, 10:04am

Fri Feb 26, 9:04am

Fri Feb 26, 8:04am

Fri Feb 26, 7:04am

Fri Feb 26, 6:04am

Fri Feb 26, 4:04am

Fri Feb 26, 3:04am

Fri Feb 26, 2:04am

Fri Feb 26, 1:04am

Fri Feb 26, 12:04am

Thu Feb 25, 11:04pm

Thu Feb 25, 10:04pm

Thu Feb 25, 9:04pm

Thu Feb 25, 8:05pm

Thu Feb 25, 7:05pm

Thu Feb 25, 6:04pm

Thu Feb 25, 5:04pm

Thu Feb 25, 4:05pm

Thu Feb 25, 3:05pm

Thu Feb 25, 2:04pm

Thu Feb 25, 1:04pm

Thu Feb 25, 12:05pm

Thu Feb 25, 11:04am

Thu Feb 25, 10:04am

Thu Feb 25, 9:04am

Thu Feb 25, 8:04am

Thu Feb 25, 7:04am

Thu Feb 25, 6:04am

Thu Feb 25, 5:04am

Thu Feb 25, 4:04am

Thu Feb 25, 3:04am

Thu Feb 25, 2:04am

Thu Feb 25, 1:04am

Thu Feb 25, 12:04am

Wed Feb 24, 11:04pm

Wed Feb 24, 10:05pm

Wed Feb 24, 9:04pm

Wed Feb 24, 8:04pm

Wed Feb 24, 7:04pm

Wed Feb 24, 6:04pm

Wed Feb 24, 5:04pm

Wed Feb 24, 4:04pm

Wed Feb 24, 3:04pm

Wed Feb 24, 2:05pm

Wed Feb 24, 1:05pm

Wed Feb 24, 12:05pm

Wed Feb 24, 11:04am

Wed Feb 24, 10:04am

Wed Feb 24, 9:04am

Wed Feb 24, 8:04am

Wed Feb 24, 7:04am

Wed Feb 24, 6:04am

Wed Feb 24, 5:04am

Wed Feb 24, 4:04am

Meta data:

ID: 2dccf754-541f-4274-bed9-b5f9879a2878
Link: https://api.weather.gov/products/2dccf754-541f-4274-bed9-b5f9879a2878